EN

Hourly Weather Spataevo

Today, 30 November, Monday

Time Temperature Precipitation Wind Pressure Humidity
00:00 -8°C° 0 mm 7 mps 757 mmHg 65%
01:00 -8°C° 0 mm 7 mps 757 mmHg 64%
02:00 -8°C° 0 mm 7 mps 756 mmHg 64%
03:00 -8°C° 0 mm 7 mps 756 mmHg 63%
04:00 -8°C° 0 mm 8 mps 756 mmHg 63%
05:00 -10°C° 0 mm 8 mps 756 mmHg 71%
06:00 -10°C° 0 mm 8 mps 756 mmHg 70%
07:00 -10°C° 0 mm 8 mps 756 mmHg 69%
08:00 -10°C° 0 mm 8 mps 756 mmHg 68%
09:00 -7°C° 0 mm 8 mps 756 mmHg 64%
10:00 -6°C° 0 mm 8 mps 755 mmHg 60%
11:00 -4°C° 0 mm 8 mps 755 mmHg 55%
12:00 -2°C° 0 mm 8 mps 754 mmHg 54%
13:00 -2°C° 0 mm 8 mps 754 mmHg 54%
14:00 -1°C° 0 mm 8 mps 753 mmHg 53%
15:00 -4°C° 0 mm 8 mps 753 mmHg 57%
16:00 -5°C° 0 mm 9 mps 753 mmHg 60%
17:00 -6°C° 0 mm 9 mps 752 mmHg 64%
18:00 -6°C° 0 mm 9 mps 752 mmHg 65%
19:00 -6°C° 0 mm 9 mps 752 mmHg 65%
20:00 -8°C° 0 mm 9 mps 751 mmHg 66%
21:00 -7°C° 0 mm 8 mps 751 mmHg 66%
22:00 -7°C° 0 mm 7 mps 751 mmHg 66%
23:00 -7°C° 0 mm 7 mps 751 mmHg 66%

Tomorrow, 1 December, Tuesday

Time Temperature Precipitation Wind Pressure Humidity
00:00 -7°C° 0 mm 7 mps 750 mmHg 65%
01:00 -6°C° 0 mm 6 mps 750 mmHg 64%
02:00 -6°C° 0 mm 6 mps 749 mmHg 63%
03:00 -6°C° 0 mm 6 mps 749 mmHg 63%
04:00 -6°C° 0 mm 6 mps 749 mmHg 63%
05:00 -6°C° 0 mm 6 mps 749 mmHg 63%
06:00 -6°C° 0 mm 6 mps 749 mmHg 63%
07:00 -6°C° 0 mm 6 mps 749 mmHg 63%
08:00 -6°C° 0 mm 6 mps 749 mmHg 63%
09:00 -5°C° 0 mm 5 mps 749 mmHg 60%
10:00 -4°C° 0 mm 5 mps 749 mmHg 56%
11:00 -2°C° 0 mm 4 mps 749 mmHg 53%
12:00 -1°C° 0 mm 4 mps 749 mmHg 53%
13:00 0°C° 0 mm 5 mps 748 mmHg 52%
14:00 0°C° 0 mm 5 mps 748 mmHg 52%
15:00 -1°C° 0 mm 4 mps 748 mmHg 55%
16:00 -2°C° 0 mm 4 mps 748 mmHg 59%
17:00 -3°C° 0 mm 4 mps 748 mmHg 63%
18:00 -2°C° 0 mm 3 mps 748 mmHg 61%
19:00 -2°C° 0 mm 3 mps 748 mmHg 60%
20:00 -2°C° 0 mm 3 mps 748 mmHg 59%
21:00 -1°C° 0 mm 3 mps 748 mmHg 58%
22:00 -1°C° 0 mm 2 mps 747 mmHg 56%
23:00 -1°C° 0 mm 2 mps 747 mmHg 55%

Day after tomorrow, 2 December, Wednesday

Time Temperature Precipitation Wind Pressure Humidity
00:00 -1°C° 0 mm 2 mps 747 mmHg 56%
01:00 +1°C° 0 mm 1 mps 747 mmHg 57%
02:00 +1°C° 0 mm 1 mps 747 mmHg 57%
03:00 +1°C° 0 mm 1 mps 747 mmHg 59%
04:00 +1°C° 0 mm 1 mps 747 mmHg 61%
05:00 +1°C° 0 mm 1 mps 747 mmHg 62%
06:00 +1°C° 0 mm 1 mps 747 mmHg 65%
07:00 +1°C° 0 mm 1 mps 747 mmHg 67%
08:00 +1°C° 0 mm 1 mps 747 mmHg 69%
09:00 +2°C° 0 mm 0 mps 747 mmHg 62%
10:00 +5°C° 0 mm 0 mps 747 mmHg 55%
11:00 +7°C° 0 mm 0 mps 748 mmHg 48%
12:00 +7°C° 0 mm 0 mps 747 mmHg 46%
13:00 +9°C° 0 mm 1 mps 747 mmHg 44%
14:00 +9°C° 0 mm 1 mps 747 mmHg 42%
15:00 +7°C° 0 mm 1 mps 747 mmHg 48%
16:00 +6°C° 0 mm 1 mps 747 mmHg 54%
17:00 +4°C° 0 mm 1 mps 747 mmHg 60%
18:00 +4°C° 0 mm 1 mps 747 mmHg 61%
19:00 +3°C° 0 mm 1 mps 747 mmHg 62%
20:00 +3°C° 0 mm 1 mps 747 mmHg 64%
21:00 +3°C° 0 mm 1 mps 747 mmHg 66%
22:00 +3°C° 0 mm 1 mps 747 mmHg 69%
23:00 +3°C° 0 mm 1 mps 747 mmHg 72%

3 December, Thursday

Time Temperature Precipitation Wind Pressure Humidity
00:00 +2°C° 0 mm 1 mps 747 mmHg 75%
01:00 +2°C° 0 mm 1 mps 747 mmHg 78%
02:00 +2°C° 0 mm 1 mps 747 mmHg 80%
03:00 +3°C° 0 mm 1 mps 747 mmHg 79%
04:00 +3°C° 0 mm 1 mps 747 mmHg 78%
05:00 +4°C° 0 mm 1 mps 747 mmHg 77%
06:00 +3°C° 0 mm 1 mps 747 mmHg 75%
07:00 +3°C° 0 mm 1 mps 747 mmHg 74%
08:00 +2°C° 0 mm 2 mps 748 mmHg 72%
09:00 +3°C° 0 mm 2 mps 748 mmHg 67%
10:00 +3°C° 0 mm 2 mps 748 mmHg 62%
11:00 +4°C° 0 mm 2 mps 748 mmHg 58%
12:00 +4°C° 0 mm 2 mps 748 mmHg 55%
13:00 +4°C° 0 mm 2 mps 748 mmHg 52%
14:00 +5°C° 0 mm 2 mps 747 mmHg 50%
15:00 +4°C° 0 mm 2 mps 747 mmHg 52%
16:00 +3°C° 0 mm 2 mps 747 mmHg 54%
17:00 +2°C° 0 mm 2 mps 747 mmHg 57%
18:00 +1°C° 0 mm 2 mps 747 mmHg 58%
19:00 +1°C° 0 mm 2 mps 747 mmHg 59%
20:00 -1°C° 0 mm 2 mps 747 mmHg 61%
21:00 -2°C° 0 mm 2 mps 747 mmHg 62%
22:00 -2°C° 0 mm 2 mps 747 mmHg 64%
23:00 -3°C° 0 mm 2 mps 747 mmHg 66%

4 December, Friday

Time Temperature Precipitation Wind Pressure Humidity
00:00 -3°C° 0 mm 2 mps 747 mmHg 68%
01:00 -4°C° 0 mm 2 mps 747 mmHg 71%
02:00 -4°C° 0 mm 2 mps 747 mmHg 73%
03:00 -5°C° 0 mm 2 mps 747 mmHg 75%
04:00 -5°C° 0 mm 2 mps 747 mmHg 77%
05:00 -6°C° 0 mm 2 mps 747 mmHg 78%
06:00 -6°C° 0 mm 2 mps 748 mmHg 77%
07:00 -6°C° 0 mm 2 mps 748 mmHg 76%
08:00 -6°C° 0 mm 2 mps 749 mmHg 75%
09:00 -5°C° 0 mm 2 mps 749 mmHg 69%
10:00 -5°C° 0 mm 2 mps 749 mmHg 62%
11:00 -4°C° 0 mm 2 mps 749 mmHg 55%
12:00 -3°C° 0 mm 2 mps 749 mmHg 50%
13:00 -2°C° 0 mm 2 mps 749 mmHg 45%
14:00 -2°C° 0 mm 3 mps 749 mmHg 40%
15:00 -3°C° 0 mm 2 mps 749 mmHg 42%
16:00 -3°C° 0 mm 2 mps 750 mmHg 45%
17:00 -4°C° 0 mm 2 mps 750 mmHg 47%
18:00 -5°C° 0 mm 2 mps 750 mmHg 49%
19:00 -4°C° 0 mm 1 mps 750 mmHg 51%
20:00 -4°C° 0 mm 1 mps 751 mmHg 52%
21:00 -4°C° 0 mm 1 mps 751 mmHg 53%
22:00 -6°C° 0 mm 1 mps 751 mmHg 54%
23:00 -6°C° 0 mm 0 mps 751 mmHg 55%

5 December, Saturday

Time Temperature Precipitation Wind Pressure Humidity
00:00 -6°C° 0 mm 0 mps 751 mmHg 56%
01:00 -6°C° 0 mm 0 mps 750 mmHg 56%
02:00 -6°C° 0 mm 0 mps 750 mmHg 57%
03:00 -6°C° 0 mm 0 mps 750 mmHg 58%
04:00 -7°C° 0 mm 1 mps 750 mmHg 59%
05:00 -7°C° 0 mm 1 mps 750 mmHg 59%
06:00 -7°C° 0 mm 1 mps 750 mmHg 61%
07:00 -7°C° 0 mm 1 mps 750 mmHg 63%
08:00 -7°C° 0 mm 1 mps 750 mmHg 64%
09:00 -5°C° 0 mm 0 mps 750 mmHg 57%
10:00 -3°C° 0 mm 0 mps 750 mmHg 50%
11:00 -1°C° 0 mm 0 mps 750 mmHg 43%
12:00 -1°C° 0 mm 0 mps 749 mmHg 41%
13:00 +1°C° 0 mm 1 mps 749 mmHg 38%
14:00 +1°C° 0 mm 1 mps 749 mmHg 35%
15:00 0°C° 0 mm 1 mps 749 mmHg 40%
16:00 -1°C° 0 mm 1 mps 748 mmHg 45%
17:00 -3°C° 0 mm 1 mps 748 mmHg 49%
18:00 -3°C° 0 mm 1 mps 748 mmHg 50%
19:00 -3°C° 0 mm 1 mps 748 mmHg 50%
20:00 -3°C° 0 mm 1 mps 748 mmHg 50%
21:00 -3°C° 0 mm 1 mps 748 mmHg 51%
22:00 -3°C° 0 mm 1 mps 748 mmHg 52%
23:00 -4°C° 0 mm 1 mps 748 mmHg 53%
Show more

We Need Your Consent

Meteoprog and our Service Providers may store and access personal data such as cookies, device identifiers or other similar technologies on your device and process such data to personalise content and ads, as well as provide social media features and to analyse the traffic.

  • Store and/or access information on your device

    Cookies, device identifiers or other information can be stored or accessed on your device for the purposes indicated above.

  • Personalised ads and content, ad and content measurement, audience insights, and products development

    Ads and content can be personalised based on a profile. More data can be added to better personalise ads and content. Ad and content performance can be measured. Insights about the audience who saw the ads and content can be derived. Such data can be used to develop or improve user’s experience, systems and software.

By clicking ‘I Agree’ you will allow the use of indicated cookies, device identifiers, web beacons or other similar technologies. Your settings can be changed in the browser on your device.

For certain purposes, legitimate interests may be relied on, rather than consent. You can read more about this in our Privacy and Cookie Policy.